Weather History for Twin Falls, ID

Change the Weather History Date:

Friday, July 26, 2013

  Actual Average Record
Temperature  
Mean Temperature 83 °F -  
Max Temperature 99 °F 91 °F 101 °F (2012)
Min Temperature 66 °F 59 °F 49 °F (1987)
Degree Days  
Heating Degree Days 0 0  
Month to date heating degree days 0 3  
Since 1 June heating degree days 55 90  
Since 1 July heating degree days 0 3  
Cooling Degree Days 18 10  
Month to date cooling degree days 391 226  
Year to date cooling degree days 589 335  
Since 1 June cooling degree days 564 313  
Growing Degree Days 32 (Base 50)    
Moisture  
Dew Point 38 °F    
Average Humidity 23    
Maximum Humidity 33    
Minimum Humidity 12    
Precipitation  
Precipitation 0.00 in 0.01 in 0.03 in (1986)
Month to date precipitation 0.16 0.25  
Year to date precipitation 3.19 6.51  
Sea Level Pressure  
Sea Level Pressure 29.92 in    
Wind  
Wind Speed 8 mph (WSW)    
Max Wind Speed 14 mph    
Max Gust Speed 17 mph    
Visibility 10 miles    
Events      
T = Trace of Precipitation, MM = Missing Value Source: NWS Daily Summary

Daily Weather History Graph

Daily Weather History Graph

Search for Another Location

Airport:

Trip Planner

Search our weather history database for the weather conditions in past years. The results will help you decide how hot, cold, wet, or windy it might be!

Date:

Astronomy

Jul. 26, 2013 Rise Set
Actual Time 6:24 AM MDT 9:03 PM MDT
Civil Twilight 5:51 AM MDT 9:36 PM MDT
Nautical Twilight 5:11 AM MDT 10:16 PM MDT
Astronomical Twilight 4:24 AM MDT 11:03 PM MDT
Moon 11:12 PM MDT (7/26) 11:12 AM MDT (7/26)
Length of Visible Light 15h 44m
Length of Day
14h 39m
Waning Gibbous, 79% of the Moon is Illuminated
Jul 26
Waning Gibbous
Jul 29
Last Quarter
Aug 6
New
Aug 14
First Quarter
Aug 20
Full

Hourly Weather History & Observations

Time (MDT) Temp. Dew Point Humidity Pressure Visibility Wind Dir Wind Speed Gust Speed Precip Events Conditions
12:53 AM 73.0 °F 36.0 °F 26% 29.92 in 10.0 mi South 13.8 mph - N/A   Clear
1:53 AM 75.9 °F 33.1 °F 21% 29.92 in 10.0 mi South 12.7 mph - N/A   Clear
2:53 AM 78.1 °F 32.0 °F 19% 29.91 in 10.0 mi SSW 12.7 mph - N/A   Clear
3:53 AM 75.0 °F 32.0 °F 21% 29.92 in 10.0 mi SSW 10.4 mph - N/A   Clear
4:53 AM 71.1 °F 32.0 °F 24% 29.93 in 10.0 mi South 12.7 mph - N/A   Clear
5:53 AM 68.0 °F 34.0 °F 28% 29.95 in 10.0 mi South 12.7 mph - N/A   Clear
6:53 AM 69.1 °F 35.1 °F 29% 29.96 in 10.0 mi South 10.4 mph - N/A   Clear
7:53 AM 75.0 °F 35.1 °F 23% 29.98 in 10.0 mi SSW 9.2 mph - N/A   Clear
8:53 AM 82.0 °F 34.0 °F 18% 30.02 in 10.0 mi SSW 4.6 mph - N/A   Clear
9:53 AM 84.9 °F 37.9 °F 19% 30.01 in 10.0 mi NW 5.8 mph - N/A   Clear
11:53 AM 90.0 °F 44.1 °F 20% 29.99 in 10.0 mi NNW 6.9 mph - N/A   Clear
12:53 PM 91.0 °F 48.0 °F 23% 29.99 in 10.0 mi NNW 10.4 mph - N/A   Clear
1:53 PM 93.9 °F 46.9 °F 20% 29.96 in 10.0 mi NW 10.4 mph - N/A   Clear
2:53 PM 96.1 °F 42.1 °F 15% 29.94 in 10.0 mi WNW 5.8 mph - N/A   Clear
3:53 PM 96.1 °F 36.0 °F 12% 29.91 in 10.0 mi NW 3.5 mph - N/A   Clear
4:53 PM 97.0 °F 37.9 °F 13% 29.89 in 10.0 mi NW 5.8 mph - N/A   Clear
5:53 PM 96.1 °F 37.0 °F 13% 29.89 in 10.0 mi Variable 3.5 mph - N/A   Clear
6:53 PM 93.9 °F 37.0 °F 14% 29.88 in 10.0 mi NW 5.8 mph - N/A   Clear
7:53 PM 93.0 °F 36.0 °F 13% 29.85 in 10.0 mi NW 3.5 mph - N/A   Clear
8:53 PM 80.1 °F 48.0 °F 32% 29.87 in 10.0 mi West 11.5 mph 16.1 mph N/A   Clear
9:53 PM 81.0 °F 39.9 °F 23% 29.86 in 10.0 mi SW 9.2 mph - N/A   Clear
10:53 PM 81.0 °F 39.0 °F 22% 29.87 in 10.0 mi SSW 10.4 mph - N/A   Clear
11:53 PM 81.0 °F 37.9 °F 21% 29.85 in 10.0 mi SSW 8.1 mph - N/A   Clear